Regional Weather Roundup
Issued by NWS Sterling, VA

Home | Current Version | Previous Version | Text Only | Print | Product List | Glossary Off
Versions: 1 2 3 4 5 6 7 8 9 10 11 12 13 14 15 16 17 18 19 20 21 22 23 24 25 26 27 28 29 30 31 32 33 34 35 36 37 38 39 40 41 42 43 44 45

000
ASUS41 KLWX 241310
RWRLWX

REGIONAL WEATHER ROUNDUP
NATIONAL WEATHER SERVICE BALTIMORE MD/WASHINGTON DC
800 AM EST WED DEC 24 2014

Note: "FAIR" indicates few or no clouds below 12,000 feet
with no significant weather and/or obstructions to visibility.
 TC=TEMPERATURE CELSIUS

 * =Non NWS site. Station does not report precipitation (e.g. rain,
    snow, etc.), thunder, or fog.

DCZ001-MDZ009-015-VAZ040>042-051-053>054-241400-
WASHINGTON METRO

CITY           SKY/WX    TMP DP  RH WIND       PRES   REMARKS
WASHINGTON NAT LGT RAIN  48  45  87 CALM      29.87F VSB 1
DULLES         LGT RAIN  42  42 100 CALM      29.86F VSB 1
ANDREWS AFB    RAIN      46  46 100 NE2       29.85F VSB 1/2
FT BELVOIR     LGT RAIN  46  45  93 CALM      29.86F VSB 1/2
QUANTICO       RAIN      43  41  93 CALM      29.87F VSB 1
COLLEGE PARK*  CLOUDY    46  46 100 CALM      29.86F
LEESBURG*      LGT RAIN  43  43 100 CALM      29.87F
MANASSAS*      RAIN      45  45 100 CALM      29.88S
GAITHERSBURG*  CLOUDY    46  45  93 CALM      29.89S

$$

MDZ006>007-011-014-241400-
BALTIMORE METRO

CITY           SKY/WX    TMP DP  RH WIND       PRES   REMARKS
BWI AIRPORT    LGT RAIN  47  47 100 E5        29.86F VSB 3/4
MD SCIENCE CTR   N/A     46  46 100 MISG      29.87F
MARTIN STATE   DRZL/FOG  48  48 100 CALM      29.89S VSB 1
ANNAPOLIS      LGT RAIN  47  46  97 CALM      29.86F VSB 3/4
FORT MEADE*    CLOUDY    45  45 100 CALM      29.89F

$$

MDZ012-015-019>023-241400-
MARYLAND EASTERN SHORE

CITY           SKY/WX    TMP DP  RH WIND       PRES   REMARKS
OCEAN CITY     LGT RAIN  52  51  97 VRB7      29.89S FOG
SALISBURY      LGT RAIN  57  54  89 SE6       29.88F FOG
BAY BRIDGE AP*   N/A     50  50 100 CALM      29.87S
CAMBRIDGE*     CLOUDY    54  52  94 SE6       29.86F
EASTON*        FOG       54  54 100 SE6       29.90F VSB 3/4

$$

MDZ017>025-241400-
SOUTHERN MARYLAND

CITY           SKY/WX    TMP DP  RH WIND       PRES   REMARKS
PATUXENT RIVER DRZL/FOG  47  46  97 SE7       29.86S VSB 1/8
ST INIGOES     LGT RAIN  51  48  89 SE6       29.86S VSB 1/2
LEONARDTOWN*   CLOUDY    48  46  93 SE5       29.87F VSB 1/4

$$

MDZ003>005-241400-
NORTH CENTRAL MARYLAND

CITY           SKY/WX    TMP DP  RH WIND       PRES   REMARKS
FREDERICK*     LGT RAIN  46  43  87 VRB3      29.89F
HAGERSTOWN APT LGT RAIN  44  42  93 CALM      29.84F FOG
WESTMINSTER*   RAIN      46  46 100 CALM      29.85F

$$

MDZ501>502-241400-
WESTERN MARYLAND

CITY           SKY/WX    TMP DP  RH WIND       PRES   REMARKS
OAKLAND*       FOG       37 N/A N/A SE17      29.73F VSB 1/4 WCI  28
CUMBERLAND*    CLOUDY    37  37 100 CALM      29.88F

$$

VAZ025>031-241400-
SHENANDOAH VALLEY

CITY           SKY/WX    TMP DP  RH WIND       PRES   REMARKS
WINCHESTER*    DRIZZLE   41  37  87 CALM      29.83F
FRONT ROYAL*   CLOUDY    39  39 100 CALM      29.83S
LURAY*         RAIN      41  41 100 CALM      29.84S
NEW MARKET*    CLOUDY    39  39  99 CALM      29.83F
STAUNTON*      LGT RAIN  41  39  94 CALM      29.84F
WAYNESBORO*    CLOUDY    41  40  99 NW5       29.83S

$$

WVZ021-048>050-054>055-241400-
EASTERN WEST VIRGINIA PANHANDLE

CITY           SKY/WX    TMP DP  RH WIND       PRES   REMARKS
MARTINSBURG    LGT RAIN  42  39  89 CALM      29.85S FOG
PETERSBURG*    LGT RAIN  38  37  97 CALM      29.84F

$$

VAZ036>039-050-241400-
CENTRAL FOOTHILLS

CITY           SKY/WX    TMP DP  RH WIND       PRES   REMARKS
CHARLOTTESVILL RAIN      43  42  97 CALM      29.85S FOG
CULPEPER*      LGT RAIN  45  45 100 CALM      29.86F
ORANGE*        LGT RAIN  45  43  93 CALM      29.87F
GORDONSVILLE*  CLOUDY    43  42  99 CALM      29.85F
WARRENTON*     DRIZZLE   44  44 100 CALM      29.86S

$$

VAZ055>057-241400-
NORTH AND CENTRAL PIEDMONT

CITY           SKY/WX    TMP DP  RH WIND       PRES   REMARKS
FREDERICKSBRG* LGT RAIN  45  45 100 W6        29.87R
STAFFORD*      SNOW      44  44 100 CALM      29.90S VSB 1/2

$$

NCZ024-NYZ072-PAZ021-071-VAZ022-071-241400-
OTHER REGIONAL OBSERVATIONS

CITY           SKY/WX    TMP DP  RH WIND       PRES   REMARKS
NEW YORK CITY  CLOUDY    44  43  96 E9        29.98F FOG
PHILADELPHIA   LGT RAIN  49  47  93 NE7       29.90F FOG
PITTSBURGH     DRIZZLE   50  49  96 SE7       29.66S
ROANOKE        LGT RAIN  43  43 100 CALM      29.84F
RICHMOND       LGT RAIN  48  45  89 N3        29.85F VSB 1/2
RALEIGH        LGT RAIN  48  46  93 N6        29.82F VSB 1/8

$$

ANZ530>537-241400-
MARINE OBSERVATIONS

STATION/POSITION TIME  TEMP    WIND        PRES
                       AIR SEA DIR/SP/G
                 (UTC) (F)     (DEG/KT/KT) (MB)
THOMAS PT LIGHT  1300   46 42   30/  2/  2 1012.2F
BALT KEY BRIDGE  1300   47      30/  2/  2 1011.2S
COVE POINT       1300   47     180/  7/  7 1011.1S
LEWISETTA        1300   45 41  110/  1/  3 1010.9S
SOLOMONS ISLAND  1300      43                N/A
PINEY POINT      1300          130/ 10/ 10   N/A

$$




USA.gov is the U.S. government's official web portal to all federal, state and local government web resources and services.